Location: Laan Hart van Zuid
(52.2563°N, 6.7904°E)
Time: 20:36:53
(UTC+01:00)

Tiangong - Visible Passes

Search period start: 18 January 2026 00:00
Search period end: 28 January 2026 00:00
Orbit: 378 x 393 km, 41.5° (Epoch: 18 January)

Date Brightness Start Highest point End Pass type
(mag) Time Alt. Az. Time Alt. Az. Time Alt. Az.
18 Jan 1.1 07:50:05 10° S 07:50:42 10° SSE 07:51:19 10° SSE visible
20 Jan 0.8 07:27:18 10° SSW 07:28:35 12° S 07:29:53 10° SSE visible
21 Jan 0.8 06:28:52 10° S 06:29:30 10° SSE 06:30:08 10° SSE visible
22 Jan 0.6 07:04:55 10° SSW 07:06:21 12° S 07:07:47 10° SSE visible
23 Jan 0.6 06:06:57 12° S 06:07:10 12° S 06:08:26 10° SSE visible
23 Jan 0.7 07:42:26 10° SSW 07:43:10 11° S 07:43:55 10° S visible
24 Jan 0.5 06:42:42 10° SSW 06:43:58 12° S 06:45:14 10° SSE visible
25 Jan 0.9 05:45:48 11° SSE 05:45:48 11° SSE 05:46:06 10° SSE visible
26 Jan 0.6 06:21:17 10° SSW 06:21:25 10° SSW 06:22:02 10° S visible
